| time (UTC) | temp C | wind direction | speed KPH | gust KPH | rain 1hr cm | rain 24hr cm | rain mn cm | humidity % | barometer mb |
| 20260506154519 | 13 | 113 | 4.8 | 12.9 | 0.00 | 0.00 | 0.00 | 73 | 1010.6 |
| 20260506153551 | 13 | 0 | 14.5 | 19.3 | 0.00 | 0.00 | 0.00 | 72 | 1010.6 |
| 20260506152529 | 13 | 0 | 11.3 | 17.7 | 0.00 | 0.00 | 0.00 | 71 | 1010.7 |
| 20260506151529 | 14 | 45 | 6.4 | 12.9 | 0.00 | 0.00 | 0.00 | 72 | 1010.6 |
| 20260506150518 | 14 | 0 | 8.0 | 19.3 | 0.00 | 0.00 | 0.00 | 72 | 1010.6 |
| 20260506145620 | 13 | 338 | 11.3 | 22.5 | 0.00 | 0.00 | 0.00 | 71 | 1010.6 |
| 20260506144530 | 13 | 0 | 6.4 | 14.5 | 0.00 | 0.00 | 0.00 | 71 | 1010.6 |
| 20260506143530 | 13 | 45 | 6.4 | 11.3 | 0.00 | 0.00 | 0.00 | 71 | 1010.6 |
| 20260506142559 | 13 | 23 | 17.7 | 25.7 | 0.00 | 0.00 | 0.00 | 70 | 1010.6 |
| 20260506141539 | 13 | 315 | 8.0 | 14.5 | 0.00 | 0.00 | 0.00 | 69 | 1010.6 |
| 20260506140529 | 13 | 23 | 9.7 | 17.7 | 0.00 | 0.00 | 0.00 | 68 | 1010.6 |
| 20260506135551 | 13 | 23 | 12.9 | 22.5 | 0.00 | 0.00 | 0.00 | 69 | 1010.6 |
| 20260506134551 | 13 | 0 | 9.7 | 17.7 | 0.00 | 0.00 | 0.00 | 70 | 1010.5 |
| 20260506133518 | 14 | 23 | 11.3 | 19.3 | 0.00 | 0.00 | 0.00 | 68 | 1010.4 |
| 20260506132519 | 15 | 338 | 11.3 | 25.7 | 0.00 | 0.00 | 0.00 | 66 | 1010.6 |
| 20260506131519 | 15 | 0 | 14.5 | 20.9 | 0.00 | 0.00 | 0.00 | 63 | 1010.5 |
| 20260506130519 | 15 | 0 | 8.0 | 17.7 | 0.00 | 0.00 | 0.00 | 64 | 1010.5 |
| 20260506125529 | 15 | 23 | 11.3 | 19.3 | 0.00 | 0.00 | 0.00 | 64 | 1010.5 |
| 20260506124539 | 15 | 0 | 8.0 | 17.7 | 0.00 | 0.00 | 0.00 | 67 | 1010.3 |
| 20260506123518 | 14 | 0 | 11.3 | 16.1 | 0.00 | 0.00 | 0.00 | 68 | 1010.3 |
| 20260506122518 | 15 | 0 | 14.5 | 25.7 | 0.00 | 0.00 | 0.00 | 67 | 1010.3 |
| 20260506121529 | 15 | 0 | 12.9 | 19.3 | 0.00 | 0.00 | 0.00 | 67 | 1010.1 |
| 20260506120529 | 14 | 45 | 9.7 | 16.1 | 0.00 | 0.00 | 0.00 | 69 | 1010.1 |
| 20260506115519 | 14 | 0 | 8.0 | 19.3 | 0.00 | 0.00 | 0.00 | 68 | 1010.1 |
| 20260506114529 | 15 | 45 | 12.9 | 27.4 | 0.00 | 0.00 | 0.00 | 65 | 1010.2 |
| 20260506113529 | 15 | 45 | 8.0 | 12.9 | 0.00 | 0.00 | 0.00 | 66 | 1010.2 |
| 20260506112539 | 15 | 23 | 16.1 | 22.5 | 0.00 | 0.00 | 0.00 | 65 | 1010.1 |
| 20260506111529 | 15 | 0 | 11.3 | 19.3 | 0.00 | 0.00 | 0.00 | 65 | 1010.1 |
| 20260506110538 | 14 | 23 | 9.7 | 22.5 | 0.00 | 0.00 | 0.00 | 66 | 1010.1 |
| 20260506105529 | 15 | 0 | 14.5 | 20.9 | 0.00 | 0.00 | 0.00 | 67 | 1010.1 |
| 20260506104540 | 15 | 0 | 11.3 | 25.7 | 0.00 | 0.00 | 0.00 | 66 | 1010.0 |
| 20260506103539 | 15 | 0 | 11.3 | 17.7 | 0.00 | 0.00 | 0.00 | 67 | 1010.1 |
| 20260506102518 | 15 | 0 | 9.7 | 16.1 | 0.00 | 0.00 | 0.00 | 65 | 1010.0 |
| 20260506101518 | 14 | 23 | 8.0 | 16.1 | 0.00 | 0.00 | 0.00 | 67 | 1010.2 |
| 20260506100519 | 15 | 45 | 9.7 | 20.9 | 0.00 | 0.00 | 0.00 | 67 | 1010.0 |
| 20260506095529 | 15 | 23 | 11.3 | 16.1 | 0.00 | 0.00 | 0.00 | 67 | 1009.8 |
| 20260506094519 | 14 | 0 | 12.9 | 22.5 | 0.00 | 0.00 | 0.00 | 68 | 1009.8 |
| 20260506093518 | 14 | 23 | 9.7 | 17.7 | 0.00 | 0.00 | 0.00 | 69 | 1009.8 |
| 20260506092549 | 13 | 0 | 11.3 | 24.1 | 0.00 | 0.00 | 0.00 | 67 | 1009.8 |
| 20260506091521 | 14 | 0 | 8.0 | 16.1 | 0.00 | 0.00 | 0.00 | 67 | 1009.9 |
| 20260506090520 | 13 | 23 | 11.3 | 22.5 | 0.00 | 0.00 | 0.00 | 69 | 1009.9 |
| 20260506085601 | 13 | 23 | 11.3 | 19.3 | 0.00 | 0.00 | 0.00 | 69 | 1009.9 |
| 20260506084518 | 13 | 23 | 11.3 | 19.3 | 0.00 | 0.00 | 0.00 | 68 | 1009.8 |
| 20260506083518 | 13 | 45 | 8.0 | 16.1 | 0.00 | 0.00 | 0.00 | 68 | 1009.7 |
| 20260506082531 | 13 | 0 | 8.0 | 12.9 | 0.00 | 0.00 | 0.00 | 70 | 1009.7 |
| 20260506081531 | 13 | 90 | 4.8 | 17.7 | 0.00 | 0.00 | 0.00 | 70 | 1009.5 |
| 20260506080518 | 13 | 23 | 16.1 | 25.7 | 0.00 | 0.00 | 0.00 | 69 | 1009.5 |
| 20260506072520 | 12 | 23 | 6.4 | 11.3 | 0.00 | 0.00 | 0.00 | 75 | 1009.3 |
| 20260506071531 | 11 | 23 | 14.5 | 24.1 | 0.00 | 0.00 | 0.00 | 76 | 1009.5 |
| 20260506070600 | 11 | 23 | 9.7 | 19.3 | 0.00 | 0.00 | 0.00 | 76 | 1009.4 |
| 20260506061520 | 11 | 338 | 3.2 | 9.7 | 0.00 | 0.00 | 0.00 | 79 | 1009.2 |
| 20260506060503 | 11 | 45 | 6.4 | 9.7 | 0.00 | 0.00 | 0.00 | 79 | 1009.3 |
| 20260506050718 | 11 | 0 | 9.7 | 12.9 | 0.00 | 0.00 | 0.00 | 79 | 1009.2 |
| 20260506044330 | 10 | 23 | 4.8 | 8.0 | 0.00 | 0.00 | 0.00 | 79 | 1009.3 |
| 20260506043339 | 10 | 45 | 4.8 | 12.9 | 0.00 | 0.00 | 0.00 | 79 | 1009.2 |
| 20260506042319 | 10 | 23 | 4.8 | 11.3 | 0.00 | 0.00 | 0.00 | 80 | 1009.2 |
| 20260506041340 | 10 | 23 | 9.7 | 16.1 | 0.00 | 0.00 | 0.00 | 79 | 1009.3 |
| 20260506040352 | 10 | 0 | 9.7 | 16.1 | 0.00 | 0.00 | 0.00 | 79 | 1009.3 |
| 20260506035340 | 10 | 315 | 8.0 | 17.7 | 0.00 | 0.00 | 0.00 | 80 | 1009.3 |
| 20260506034330 | 10 | 0 | 9.7 | 14.5 | 0.00 | 0.00 | 0.00 | 80 | 1009.4 |
| 20260506033320 | 10 | 0 | 8.0 | 17.7 | 0.00 | 0.00 | 0.00 | 80 | 1009.2 |
| 20260506032350 | 10 | 0 | 6.4 | 14.5 | 0.00 | 0.00 | 0.00 | 80 | 1009.3 |
| 20260506031320 | 10 | 23 | 11.3 | 24.1 | 0.00 | 0.00 | 0.00 | 79 | 1009.3 |
| 20260506030352 | 10 | 23 | 8.0 | 12.9 | 0.00 | 0.00 | 0.00 | 80 | 1009.3 |
| 20260506025330 | 10 | 23 | 6.4 | 9.7 | 0.00 | 0.00 | 0.00 | 80 | 1009.2 |
| 20260506024341 | 10 | 23 | 4.8 | 14.5 | 0.00 | 0.00 | 0.00 | 80 | 1009.1 |
| 20260506023330 | 10 | 45 | 6.4 | 16.1 | 0.00 | 0.00 | 0.00 | 79 | 1009.2 |
| 20260506022319 | 10 | 23 | 12.9 | 19.3 | 0.00 | 0.00 | 0.00 | 79 | 1009.3 |
| 20260506021319 | 10 | 45 | 8.0 | 14.5 | 0.00 | 0.00 | 0.00 | 80 | 1009.3 |
| 20260506020330 | 10 | 338 | 9.7 | 14.5 | 0.00 | 0.00 | 0.00 | 80 | 1009.3 |
| 20260506015330 | 10 | 0 | 12.9 | 22.5 | 0.00 | 0.00 | 0.00 | 80 | 1009.3 |
| 20260506014320 | 10 | 338 | 8.0 | 16.1 | 0.00 | 0.00 | 0.00 | 81 | 1009.4 |
| 20260506013319 | 10 | 23 | 9.7 | 16.1 | 0.00 | 0.00 | 0.00 | 81 | 1009.5 |
| 20260506012320 | 10 | 23 | 9.7 | 14.5 | 0.00 | 0.00 | 0.00 | 81 | 1009.4 |
| 20260506011350 | 10 | 23 | 9.7 | 12.9 | 0.00 | 0.00 | 0.00 | 81 | 1009.4 |
| 20260506010319 | 10 | 0 | 8.0 | 14.5 | 0.00 | 0.00 | 0.00 | 80 | 1009.5 |
| 20260506005339 | 10 | 23 | 6.4 | 12.9 | 0.00 | 0.00 | 0.00 | 80 | 1009.6 |
| 20260506004319 | 10 | 23 | 12.9 | 20.9 | 0.00 | 0.00 | 0.00 | 81 | 1009.7 |
| 20260506003330 | 10 | 23 | 4.8 | 8.0 | 0.00 | 0.00 | 0.00 | 81 | 1009.8 |
| 20260506002319 | 10 | 68 | 4.8 | 12.9 | 0.00 | 0.00 | 0.00 | 80 | 1009.8 |
| 20260506001319 | 10 | 23 | 8.0 | 16.1 | 0.00 | 0.00 | 0.00 | 80 | 1009.8 |
| 20260506000330 | 10 | 338 | 6.4 | 12.9 | 0.00 | 0.00 | 0.00 | 79 | 1009.8 |
| 20260505235320 | 10 | 23 | 11.3 | 19.3 | 0.00 | 0.00 | 0.00 | 79 | 1009.8 |
| 20260505234320 | 10 | 0 | 11.3 | 17.7 | 0.00 | 0.00 | 0.00 | 78 | 1009.7 |
| 20260505233322 | 11 | 0 | 6.4 | 12.9 | 0.00 | 0.00 | 0.00 | 77 | 1009.8 |
| 20260505232350 | 11 | 0 | 6.4 | 16.1 | 0.00 | 0.00 | 0.00 | 78 | 1009.9 |
| 20260505231330 | 11 | 23 | 11.3 | 19.3 | 0.00 | 0.00 | 0.00 | 78 | 1009.8 |
| 20260505230330 | 11 | 23 | 11.3 | 17.7 | 0.00 | 0.00 | 0.00 | 78 | 1009.9 |
| 20260505225320 | 11 | 0 | 8.0 | 16.1 | 0.00 | 0.00 | 0.00 | 78 | 1009.9 |
| 20260505224352 | 11 | 45 | 6.4 | 14.5 | 0.00 | 0.00 | 0.00 | 78 | 1009.9 |
| 20260505223319 | 11 | 0 | 8.0 | 17.7 | 0.00 | 0.00 | 0.00 | 78 | 1010.0 |
| 20260505222320 | 11 | 45 | 8.0 | 14.5 | 0.00 | 0.00 | 0.00 | 78 | 1009.9 |
| 20260505221350 | 11 | 23 | 6.4 | 17.7 | 0.00 | 0.00 | 0.00 | 78 | 1010.0 |
| 20260505220323 | 11 | 23 | 14.5 | 20.9 | 0.00 | 0.00 | 0.00 | 78 | 1010.1 |
| 20260505215533 | 11 | 23 | 6.4 | 12.9 | 0.00 | 0.00 | 0.00 | 78 | 1010.1 |
| 20260505214330 | 11 | 0 | 11.3 | 19.3 | 0.00 | 0.00 | 0.00 | 78 | 1010.2 |
| 20260505213319 | 11 | 23 | 6.4 | 9.7 | 0.00 | 0.00 | 0.00 | 77 | 1010.2 |
| 20260505212319 | 11 | 23 | 6.4 | 8.0 | 0.00 | 0.00 | 0.00 | 77 | 1010.2 |
| 20260505211401 | 11 | 45 | 8.0 | 16.1 | 0.00 | 0.00 | 0.00 | 77 | 1010.2 |
| 20260505210319 | 11 | 68 | 6.4 | 12.9 | 0.00 | 0.00 | 0.00 | 78 | 1010.1 |
| 20260505205330 | 11 | 23 | 12.9 | 19.3 | 0.00 | 0.00 | 0.00 | 78 | 1010.0 |
| 20260505204330 | 11 | 338 | 8.0 | 20.9 | 0.00 | 0.00 | 0.00 | 78 | 1010.1 |
| 20260505203330 | 11 | 0 | 12.9 | 22.5 | 0.00 | 0.00 | 0.00 | 78 | 1010.1 |
| 20260505202319 | 11 | 68 | 4.8 | 8.0 | 0.00 | 0.00 | 0.00 | 79 | 1010.1 |
| 20260505201330 | 11 | 45 | 6.4 | 14.5 | 0.00 | 0.00 | 0.00 | 78 | 1010.1 |
| 20260505200319 | 11 | 23 | 11.3 | 16.1 | 0.00 | 0.00 | 0.00 | 79 | 1010.0 |
| 20260505195320 | 11 | 23 | 16.1 | 22.5 | 0.00 | 0.00 | 0.00 | 78 | 1009.8 |
| 20260505194319 | 11 | 23 | 9.7 | 17.7 | 0.00 | 0.00 | 0.00 | 78 | 1009.7 |
| 20260505193319 | 11 | 315 | 4.8 | 9.7 | 0.00 | 0.00 | 0.00 | 77 | 1009.7 |
| 20260505192319 | 11 | 45 | 9.7 | 17.7 | 0.00 | 0.00 | 0.00 | 77 | 1009.6 |
| 20260505191330 | 11 | 0 | 9.7 | 17.7 | 0.00 | 0.00 | 0.00 | 76 | 1009.6 |
| 20260505190524 | 11 | 23 | 8.0 | 14.5 | 0.00 | 0.00 | 0.00 | 76 | 1009.5 |
| 20260505190019 | 11 | 23 | 14.5 | 25.7 | 0.00 | 0.00 | 0.00 | 76 | 1009.6 |
| 20260505185030 | 11 | 23 | 16.1 | 22.5 | 0.00 | 0.00 | 0.00 | 76 | 1009.5 |
| 20260505184019 | 12 | 0 | 9.7 | 17.7 | 0.00 | 0.00 | 0.00 | 76 | 1009.4 |
| 20260505183030 | 12 | 0 | 8.0 | 14.5 | 0.00 | 0.00 | 0.00 | 76 | 1009.5 |
| 20260505182019 | 12 | 0 | 9.7 | 17.7 | 0.00 | 0.00 | 0.00 | 75 | 1009.6 |
| 20260505181019 | 12 | 45 | 14.5 | 27.4 | 0.00 | 0.00 | 0.00 | 76 | 1009.5 |
| 20260505180019 | 12 | 45 | 16.1 | 24.1 | 0.00 | 0.00 | 0.00 | 76 | 1009.5 |
| 20260505175051 | 12 | 23 | 4.8 | 16.1 | 0.00 | 0.00 | 0.00 | 76 | 1009.5 |
| 20260505174019 | 12 | 23 | 9.7 | 19.3 | 0.00 | 0.00 | 0.00 | 76 | 1009.6 |
| 20260505173019 | 12 | 0 | 11.3 | 17.7 | 0.00 | 0.00 | 0.00 | 76 | 1009.4 |
| 20260505172019 | 12 | 23 | 19.3 | 30.6 | 0.00 | 0.00 | 0.00 | 77 | 1009.3 |
| 20260505171051 | 12 | 23 | 6.4 | 9.7 | 0.00 | 0.00 | 0.00 | 77 | 1009.2 |
| 20260505170030 | 12 | 23 | 12.9 | 19.3 | 0.00 | 0.00 | 0.00 | 77 | 1009.3 |
| 20260505165029 | 12 | 23 | 11.3 | 20.9 | 0.00 | 0.00 | 0.00 | 77 | 1009.3 |
| 20260505164019 | 12 | 45 | 9.7 | 17.7 | 0.00 | 0.00 | 0.00 | 77 | 1009.4 |
| 20260505163019 | 12 | 23 | 12.9 | 22.5 | 0.00 | 0.00 | 0.00 | 77 | 1009.3 |
| 20260505162019 | 12 | 45 | 19.3 | 27.4 | 0.00 | 0.00 | 0.00 | 75 | 1009.2 |
| 20260505161030 | 13 | 23 | 9.7 | 24.1 | 0.00 | 0.00 | 0.00 | 74 | 1009.3 |